Cordova, SC

6:41 PM EST on February 09, 2016 (GMT -0500)
Orangeburg Municipal

Weather History for KOGB - April, 2012

Change the Weather History Date:

Wednesday, April 25, 2012

  Actual Average Record
Temperature  
Mean Temperature 65 °F 66 °F  
Max Temperature 82 °F 79 °F 94 °F (1980)
Min Temperature 47 °F 53 °F 36 °F (2005)
Degree Days  
Heating Degree Days 0 2  
Month to date heating degree days 86 100  
Since 1 July heating degree days 1765 2309  
Cooling Degree Days 0 3  
Month to date cooling degree days 68 48  
Year to date cooling degree days 182 68  
Growing Degree Days 14 (Base 50)    
Moisture  
Dew Point 47 °F    
Average Humidity 57    
Maximum Humidity 80    
Minimum Humidity 35    
Precipitation  
Precipitation 0.00 in 0.07 in 1.75 in (2003)
Month to date precipitation 2.50 2.50  
Year to date precipitation 8.94 14.05  
Sea Level Pressure  
Sea Level Pressure 29.93 in    
Wind  
Wind Speed 5 mph (SW)    
Max Wind Speed 18 mph    
Max Gust Speed 23 mph    
Visibility 10 miles    
Events      
T = Trace of Precipitation, MM = Missing Value Source: NWS Daily Summary

Daily Weather History Graph

Daily Weather History Graph

Search for Another Location

Airport or City:

Trip Planner

Search our weather history database for the weather conditions in past years. The results will help you decide how hot, cold, wet, or windy it might be!

Date:

Astronomy

Apr. 25, 2012 Rise Set
Actual Time 6:40 AM EDT 8:02 PM EDT
Civil Twilight 6:14 AM EDT 8:28 PM EDT
Nautical Twilight 5:43 AM EDT 8:59 PM EDT
Astronomical Twilight 5:11 AM EDT 9:32 PM EDT
Moon 9:32 AM EDT (4/25) No Moon Set
Length of Visible Light 14h 13m
Length of Day
13h 21m
Waxing Crescent, 16% of the Moon is Illuminated
Apr 25
Waxing Crescent
Apr 29
First Quarter
May 5
Full
May 12
Last Quarter
May 20
New

Hourly Weather History & Observations

Time (EDT) Temp. Dew Point Humidity Pressure Visibility Wind Dir Wind Speed Gust Speed Precip Events Conditions
12:53 AM 52.0 °F 37.9 °F 59% 29.91 in 10.0 mi West 4.6 mph - N/A   Clear
1:53 AM 50.0 °F 39.0 °F 66% 29.91 in 10.0 mi Calm Calm - N/A   Clear
2:53 AM 50.0 °F 39.0 °F 66% 29.91 in 10.0 mi Calm Calm - N/A   Overcast
3:53 AM 50.0 °F 41.0 °F 71% 29.92 in 10.0 mi Calm Calm - N/A   Overcast
4:53 AM 50.0 °F 44.1 °F 80% 29.94 in 10.0 mi Calm Calm - N/A   Overcast
5:53 AM 48.0 °F 41.0 °F 77% 29.95 in 10.0 mi South 3.5 mph - N/A   Scattered Clouds
6:53 AM 48.9 °F 39.9 °F 71% 29.97 in 10.0 mi Calm Calm - N/A   Overcast
7:53 AM 48.9 °F 42.1 °F 77% 29.98 in 10.0 mi Calm Calm - N/A   Mostly Cloudy
8:53 AM 53.1 °F 43.0 °F 69% 29.99 in 10.0 mi Calm Calm - N/A   Overcast
9:53 AM 57.0 °F 45.0 °F 64% 29.99 in 10.0 mi Calm Calm - N/A   Overcast
10:53 AM 60.1 °F 46.9 °F 62% 29.99 in 10.0 mi Calm Calm - N/A   Overcast
11:53 AM 66.9 °F 48.0 °F 51% 29.99 in 10.0 mi West 9.2 mph - N/A   Overcast
12:53 PM 73.0 °F 50.0 °F 44% 29.96 in 10.0 mi West 9.2 mph - N/A   Mostly Cloudy
1:53 PM 77.0 °F 50.0 °F 39% 29.94 in 10.0 mi WSW 13.8 mph - N/A   Clear
3:53 PM 81.0 °F 50.0 °F 34% 29.90 in 10.0 mi WSW 11.5 mph 20.7 mph N/A   Partly Cloudy
4:53 PM 81.0 °F 51.1 °F 35% 29.88 in 10.0 mi SW 8.1 mph 19.6 mph N/A   Clear
5:53 PM 79.0 °F 51.1 °F 38% 29.88 in 10.0 mi SW 8.1 mph - N/A   Mostly Cloudy
6:53 PM 81.0 °F 52.0 °F 36% 29.87 in 10.0 mi WSW 10.4 mph - N/A   Overcast
7:53 PM 75.9 °F 53.1 °F 45% 29.87 in 10.0 mi South 3.5 mph - N/A   Partly Cloudy
8:53 PM 70.0 °F 55.0 °F 59% 29.90 in 10.0 mi SSW 3.5 mph - N/A   Partly Cloudy
9:53 PM 68.0 °F 55.0 °F 63% 29.91 in 10.0 mi SSW 4.6 mph - N/A   Overcast
10:53 PM 70.0 °F 51.1 °F 51% 29.93 in 10.0 mi SW 8.1 mph - N/A   Clear
11:53 PM 70.0 °F 50.0 °F 49% 29.93 in 10.0 mi SW 6.9 mph - N/A   Clear